{"data":{"norad_id":57372,"intl_designator":"2023-099AW","name":"STARLINK-5975","alt_names":[],"object_type":"PAYLOAD","status":"ACTIVE","operator":null,"country":"US","launch_date":"2023-07-16","launch_site_code":"AFETR","launch_vehicle":null,"mission":null,"orbit_class":"UNKNOWN","rcs_meters":null,"size_class":null,"mass_kg":null,"dimensions":null,"purposes":["comms"],"wikipedia_slug":null,"has_3d_model":false,"image_url":null,"decayed_at":null,"tle_current":{"epoch":"2026-09-20T22:04:13.859040Z","epoch_age_seconds":88041,"freshness":"FRESH","line1":"1 57372U 23099AW  26263.91960485  .00000433  00000+0  25249-4 0  9993","line2":"2 57372  43.0027 219.4110 0000508 266.0548  94.0246 15.27574676176058","mean_motion":15.27574676,"eccentricity":5.08e-5,"inclination_deg":43.0027,"raan_deg":219.411,"arg_perigee_deg":266.0548,"mean_anomaly_deg":94.0246,"bstar":2.5249e-5,"rev_number":17605,"period_min":94.267077258094,"perigee_km":482.71648899372,"apogee_km":483.41358712079,"semimajor_km":6861.2020380573,"source":"CELESTRAK","updated_at":"2026-09-21T09:00:33.620739Z"}}}